Vorticity
6 6 6 6 6 6 6 6 5 5 5 5 5 6 6 7 7 8 9 9 9 8 6 7 5 4 4 4 5 5 7 6 7 9 6 13 14 4 3 5 9 11 6 7 7 8 12 10 7 10 10 7 5 6 7 4 5 3 -1 -1 1 4 4 6 4 1 8 6 4 4 1 6 5 5 6 5 9 9 12 11 5 6 6 7 8 8 10 9
5 5 5 6 6 6 6 6 6 6 5 5 5 5 6 6 6 6 7 8 9 10 9 8 7 5 5 4 5 5 6 6 6 8 6 9 13 8 4 3 6 10 8 8 9 5 8 11 7 7 7 5 4 5 7 6 5 4 2 2 3 7 8 6 4 4 6 4 5 6 1 2 3 4 6 6 7 4 4 3 3 8 5 6 6 8 11 9
3 3 3 4 4 5 5 5 6 7 6 6 5 5 5 5 5 5 5 6 7 9 10 10 9 7 6 5 4 4 5 6 6 7 7 7 9 10 10 6 3 7 6 5 10 7 2 7 11 7 5 5 4 5 8 7 6 5 3 2 3 6 7 5 4 4 5 2 3 5 3 6 6 4 7 7 4 3 5 2 5 8 4 5 7 8 10 10
2 2 2 2 2 3 3 4 5 5 6 6 6 6 5 5 5 5 4 5 5 6 8 10 11 9 8 7 4 4 4 6 8 8 8 8 9 10 12 11 5 4 5 3 8 10 3 5 13 9 6 6 4 5 8 8 6 6 4 2 2 3 4 5 4 2 5 6 3 5 6 3 1 3 8 4 4 8 8 3 5 8 5 6 9 9 8 8
5 4 4 3 3 2 2 2 2 2 4 5 6 6 6 6 5 5 5 5 5 5 6 7 9 10 10 9 7 5 4 5 6 5 6 7 8 8 10 13 10 4 3 4 4 8 10 10 10 8 9 8 6 6 6 7 7 6 5 3 5 5 1 0 6 8 5 4 2 4 5 2 6 11 8 3 5 8 7 6 5 8 8 8 10 10 8 8
7 7 7 7 6 6 5 4 3 2 2 2 3 4 5 6 6 6 5 5 5 4 5 6 6 8 10 11 10 7 4 6 5 3 4 5 5 7 9 11 13 10 4 4 3 4 10 13 11 10 10 10 11 6 2 6 9 8 5 3 3 2 2 2 11 14 4 3 3 1 3 6 10 7 4 7 8 8 7 8 7 7 8 9 10 11 10 9
8 8 8 8 8 8 8 7 7 6 5 3 2 2 2 3 5 6 6 6 6 4 4 5 5 6 8 10 12 11 7 6 5 5 4 3 5 6 8 10 11 13 9 4 3 2 5 11 14 12 9 11 15 8 1 4 7 6 5 4 2 1 4 3 8 8 0 5 1 -3 2 6 6 2 7 10 5 8 8 8 12 8 5 7 7 9 11 10
8 8 8 8 8 8 8 8 8 8 7 7 5 4 3 2 2 3 5 6 6 6 5 4 5 5 5 7 10 12 11 7 4 7 7 5 7 5 6 9 10 13 13 7 3 3 4 7 12 13 10 10 14 11 5 3 4 6 5 5 4 6 4 -0 7 9 4 2 -5 -2 5 6 8 6 10 9 4 8 6 5 9 2 1 8 8 8 10 9
8 9 8 9 8 8 8 8 8 8 8 8 7 7 6 5 3 2 2 3 5 6 6 5 4 4 5 6 7 8 12 11 5 5 6 4 7 8 6 6 8 11 14 12 6 4 4 4 8 13 12 8 10 11 8 5 5 6 6 5 4 5 2 2 9 7 1 -3 -9 0 6 5 7 5 6 4 3 7 4 7 7 2 6 10 9 8 9 9
9 10 10 9 9 9 9 9 9 9 9 8 8 8 8 7 7 5 3 2 2 3 5 7 6 5 5 5 5 6 9 13 10 6 6 2 3 9 8 5 7 8 12 15 11 6 4 3 5 10 10 7 6 7 9 12 8 3 4 5 3 2 1 3 4 -4 -5 -3 -3 3 5 4 4 7 8 0 3 9 5 8 9 8 9 9 9 8 9 10
10 10 11 10 10 10 10 10 10 10 10 9 9 8 8 8 7 7 7 6 4 2 2 3 6 7 6 4 4 6 7 9 11 10 9 6 2 5 8 7 5 5 8 12 14 12 6 3 4 6 8 8 7 5 7 12 9 3 3 5 4 2 2 3 3 -1 -1 1 3 5 4 6 5 7 7 -2 6 13 5 6 8 11 9 7 11 9 8 10
12 11 11 11 11 11 11 11 11 11 11 10 10 10 10 9 8 8 7 7 6 5 3 1 3 5 7 8 4 4 4 5 9 12 12 10 4 3 6 9 6 5 6 8 13 14 10 6 3 5 9 10 7 5 7 10 10 6 1 3 4 1 2 3 2 3 2 0 4 5 2 7 8 6 7 4 10 12 6 4 4 9 7 3 9 8 7 8
11 11 11 11 11 11 11 11 11 11 11 11 11 11 11 10 10 10 8 8 7 7 7 4 3 2 6 10 5 2 3 3 7 11 13 12 9 4 1 4 7 6 6 6 9 12 12 9 6 5 7 9 7 6 8 9 10 8 3 3 3 1 3 4 2 1 1 1 1 1 0 6 10 5 6 8 9 10 4 -1 2 8 6 2 5 7 7 8
8 9 9 9 9 10 10 10 10 11 10 11 11 11 11 11 11 11 10 10 9 8 7 7 7 4 6 7 3 4 6 3 3 6 9 9 10 8 2 1 4 7 7 6 6 9 12 11 10 6 4 7 8 6 6 5 6 8 7 5 4 4 6 7 5 -0 -1 0 -0 0 1 8 11 6 5 6 5 4 -1 -0 8 8 5 3 3 5 6 6
4 5 6 6 7 7 7 8 8 9 9 9 11 11 11 11 11 12 12 12 11 10 8 8 7 6 8 7 1 3 7 5 2 1 3 5 8 9 6 2 2 4 5 6 4 5 8 10 12 10 7 7 6 6 6 5 4 6 8 7 7 7 8 10 8 4 3 4 5 4 4 8 11 7 8 11 5 -0 1 4 7 4 3 7 5 5 3 2
5 5 5 6 6 6 6 6 6 6 6 7 8 9 10 11 11 11 11 12 12 11 11 10 9 7 9 8 3 3 5 5 4 2 1 4 8 10 10 7 4 3 4 6 6 4 4 7 11 12 10 6 3 7 8 6 5 4 7 10 9 6 10 15 10 7 8 9 10 9 7 8 8 6 5 12 10 3 4 3 3 5 5 7 6 1 1 3
8 7 8 7 7 8 7 6 7 6 6 6 5 5 7 7 9 10 10 12 12 12 12 11 12 9 9 9 7 6 4 4 6 6 4 3 4 6 10 11 8 5 4 4 5 5 4 4 7 11 12 9 6 6 5 5 9 7 7 11 12 7 11 19 13 7 10 9 9 9 8 6 5 6 5 9 9 2 1 1 5 8 4 6 6 4 5 5
8 8 9 8 7 9 9 7 8 9 8 7 7 6 6 5 6 7 7 9 10 12 11 11 13 10 10 12 10 10 6 3 4 6 6 4 2 2 6 11 10 7 4 4 4 5 6 5 5 7 10 13 10 7 3 5 10 8 7 10 13 10 11 21 14 4 9 10 8 8 7 6 5 6 9 10 8 6 7 5 6 5 3 6 5 7 9 4
7 7 7 7 8 9 9 9 8 10 10 9 9 7 7 7 6 5 5 6 7 10 10 10 11 10 11 13 12 12 10 5 4 5 6 5 3 3 3 6 9 9 6 4 4 5 5 5 4 5 7 12 17 15 9 7 8 5 7 9 8 8 13 22 15 1 3 6 6 9 9 8 6 4 4 5 9 13 12 8 6 4 3 5 3 5 7 5
7 7 7 7 7 7 6 7 7 8 9 9 10 9 8 7 7 7 6 4 3 5 8 9 11 10 10 14 14 14 13 10 8 7 6 5 4 3 2 2 5 8 10 8 6 4 5 5 5 5 5 8 14 18 15 9 6 4 6 8 7 9 14 19 16 10 6 2 8 16 13 10 10 7 2 4 13 12 5 5 4 1 2 3 3 1 4 7
8 8 7 6 6 5 3 4 6 6 5 6 7 8 8 7 8 7 6 9 10 7 4 5 9 8 7 9 11 13 14 11 10 10 9 7 5 4 2 2 1 4 10 12 9 4 4 6 8 8 5 4 7 12 17 13 7 5 5 6 7 9 11 10 10 16 13 4 14 18 5 2 8 9 4 7 17 6 -5 2 4 2 4 3 3 -0 4 7
9 8 6 4 6 6 4 6 8 9 8 9 8 8 8 8 9 7 7 15 16 10 6 5 6 7 6 7 7 9 12 12 10 10 11 9 6 5 4 3 2 3 6 8 9 7 5 5 8 9 6 4 5 7 13 15 11 8 5 5 7 9 11 4 -5 5 12 5 11 13 1 -1 6 9 7 8 11 -2 -10 -2 4 7 5 2 2 0 4 6
8 8 7 6 8 10 10 11 12 12 13 14 14 13 13 12 11 9 10 15 12 4 4 6 5 5 5 6 7 6 8 11 12 10 12 13 9 8 6 5 4 3 3 3 6 8 9 11 12 9 6 4 5 7 9 13 12 9 7 6 7 9 14 12 -1 -0 6 1 1 7 5 0 2 7 11 14 10 -2 -4 2 3 5 5 4 2 -1 5 7
7 9 10 10 13 17 16 16 19 20 17 17 19 18 16 16 15 12 10 13 13 8 6 6 4 5 5 4 6 8 6 6 9 9 12 13 13 12 8 6 6 3 2 2 5 6 8 13 11 7 8 6 5 7 7 10 12 11 8 7 7 5 14 24 12 -1 2 3 -2 1 5 0 0 6 9 15 15 4 2 7 5 4 7 8 0 -4 3 3
11 13 15 15 19 23 21 22 25 25 24 23 26 26 24 23 23 22 13 5 13 16 10 11 9 5 5 5 6 8 7 6 7 8 10 11 11 13 11 8 7 5 5 3 2 4 6 12 10 5 6 6 5 6 7 9 13 15 10 7 6 3 14 26 10 -4 1 3 -3 2 8 2 -3 1 4 11 16 8 0 2 8 8 5 4 2 0 2 1
16 19 21 21 23 24 24 26 24 25 31 29 26 26 28 29 29 34 25 9 19 23 10 10 16 12 8 6 5 4 6 9 9 7 8 10 11 13 13 10 6 6 7 5 3 2 3 9 10 6 5 5 6 4 3 6 7 14 19 14 8 5 12 16 5 -2 0 -1 -4 -1 2 -0 -6 -4 6 16 15 10 3 0 6 8 2 1 5 6 4 2
21 22 24 23 22 23 21 23 22 24 27 24 23 24 26 30 29 35 29 16 29 35 18 12 19 23 21 13 8 6 4 6 10 11 9 8 10 12 13 12 8 6 7 5 4 4 3 6 7 7 7 4 7 6 4 6 3 9 24 20 8 7 7 8 9 5 1 5 5 -4 -10 -6 -6 -8 1 12 12 12 14 9 3 2 3 4 6 7 4 4
22 23 25 22 21 22 16 15 19 18 11 10 15 16 17 21 24 33 31 22 30 34 23 18 18 24 28 21 16 12 7 5 8 12 12 8 10 11 12 16 14 8 8 7 4 5 4 5 6 7 10 7 5 8 8 9 6 6 20 22 12 8 4 9 17 8 1 8 7 -2 -2 -0 -4 -6 -3 4 10 14 16 12 7 7 8 8 9 10 7 4
20 22 24 21 19 19 12 12 17 10 2 2 4 2 5 10 13 20 23 25 35 34 25 25 21 21 26 26 20 12 8 10 4 -3 -2 2 7 10 8 13 18 13 10 10 4 3 4 5 6 5 11 13 6 6 8 8 10 9 15 22 17 9 6 10 15 6 -2 4 3 -2 6 10 6 4 4 6 10 16 16 8 7 13 13 12 12 12 9 7
16 18 18 17 15 13 9 13 16 9 3 1 -2 -3 1 4 5 8 9 15 27 31 28 29 26 22 24 28 25 16 12 16 14 4 -1 -1 0 8 9 5 15 19 12 13 9 4 3 2 6 6 6 12 9 6 8 5 8 12 13 19 19 12 9 9 9 4 -5 -2 6 2 -1 6 9 5 7 9 6 12 18 11 8 12 10 12 13 9 9 9
11 12 13 13 11 10 9 11 13 11 7 2 -2 -1 -0 3 7 8 6 7 15 21 25 29 33 30 25 25 26 24 20 18 23 21 11 4 -5 -4 4 2 6 15 11 12 12 7 6 2 1 5 5 8 9 8 8 5 4 9 11 17 19 13 12 8 4 3 -5 -6 5 6 -3 -2 5 4 5 6 1 3 10 11 15 16 9 10 14 9 10 12
6 8 10 9 9 11 11 9 10 10 7 4 2 4 4 6 11 14 7 2 8 15 20 26 37 41 28 22 27 24 22 20 20 22 15 12 7 -5 -3 4 3 9 13 10 8 6 9 8 0 0 4 6 8 7 7 5 3 7 10 13 16 14 12 9 5 4 0 -6 -3 0 -4 -9 -3 7 8 3 -1 3 4 5 14 20 13 9 9 7 12 15
4 6 8 7 7 9 9 8 8 7 5 6 6 7 9 10 16 21 11 1 2 7 16 20 32 50 33 17 28 22 18 24 17 21 22 13 18 13 3 10 10 10 13 9 13 14 8 9 7 -0 -0 3 7 8 6 4 2 5 7 8 12 13 7 4 6 7 3 -5 -9 -6 -5 -9 -5 9 15 8 -1 1 4 1 5 13 12 11 13 17 22 18
4 6 7 5 6 9 8 5 5 6 6 9 12 12 16 18 20 21 11 5 5 2 11 9 11 52 51 14 21 24 17 30 24 20 27 14 16 23 4 1 12 17 17 11 14 19 12 11 11 3 1 3 7 9 7 8 7 5 6 7 9 12 9 7 6 5 3 -2 -8 -10 -10 -6 -2 3 10 14 7 4 4 1 3 6 8 10 11 18 24 17
5 7 5 2 5 12 13 12 14 17 17 17 20 20 20 20 17 16 10 8 9 1 6 5 -7 39 75 31 11 24 15 22 30 19 22 19 15 24 11 -8 -9 -2 11 22 19 14 18 18 9 4 7 3 4 9 7 5 7 7 6 6 5 9 19 21 13 8 8 1 -6 -5 -4 -3 -1 -3 -1 8 10 5 -0 -1 -0 -2 3 9 3 8 24 19
3 5 5 4 9 20 23 23 23 22 20 19 22 21 18 14 8 10 12 8 11 4 0 10 -7 12 79 64 10 19 18 9 29 25 14 20 15 17 22 5 -9 -14 -8 10 11 6 20 22 4 5 14 6 1 9 10 5 5 8 5 3 4 8 17 20 15 15 15 4 -3 7 9 -2 -5 -0 3 4 3 -0 -4 -4 -2 -7 -3 7 1 5 24 16
3 6 11 13 16 22 20 17 15 14 16 15 16 15 9 8 7 8 14 8 10 10 -2 11 5 -10 58 93 26 9 25 8 20 28 8 14 19 15 20 14 10 11 5 5 2 3 19 17 1 4 13 9 2 6 13 9 5 6 5 5 8 9 9 10 11 15 18 12 5 12 15 0 -9 1 10 7 2 1 -3 -5 2 1 -4 1 2 4 16 15
7 9 13 16 17 18 13 11 14 14 17 17 16 16 10 11 12 7 15 11 4 13 4 8 17 -11 26 96 54 7 27 20 11 19 8 6 13 13 17 14 9 11 12 9 3 9 19 10 3 7 6 6 5 5 10 10 4 4 6 7 6 3 3 4 5 7 11 13 12 15 18 10 1 4 10 8 3 3 3 -1 2 6 -1 -2 3 5 9 11
11 12 16 20 18 17 15 14 15 12 15 16 11 15 17 17 20 13 16 17 4 12 12 6 21 2 2 75 79 13 12 32 17 6 10 11 7 7 13 15 13 12 14 9 0 10 19 7 6 12 4 4 12 13 9 5 5 5 4 6 5 3 6 5 5 8 9 10 10 12 17 17 13 13 16 16 10 8 14 12 5 6 4 -0 6 13 13 12
17 18 20 22 17 15 16 13 13 10 9 9 2 5 11 17 27 21 13 19 11 11 18 9 15 11 -5 45 88 35 -5 18 24 4 5 13 10 8 10 10 12 15 20 17 4 4 15 12 6 8 3 -2 8 20 13 2 5 6 2 3 4 4 6 6 8 10 9 7 6 8 11 12 11 14 20 26 25 23 30 30 18 14 10 2 8 21 21 19
22 20 15 14 11 10 14 12 11 8 4 7 8 6 7 15 28 22 12 22 20 11 17 12 7 14 2 16 70 65 5 -11 12 14 6 9 10 10 12 12 11 10 15 21 12 3 12 17 4 1 8 -1 -3 11 11 1 4 8 7 6 3 1 3 4 7 8 7 7 7 7 9 12 13 14 17 23 26 25 26 26 21 21 23 14 12 17 16 15
20 19 8 7 12 11 14 13 6 6 7 11 22 21 16 22 25 16 16 25 20 10 14 12 5 11 10 5 39 72 41 -3 -2 12 8 7 11 11 11 14 12 9 12 19 16 5 10 17 2 -2 14 11 -1 -1 -0 2 8 9 10 11 7 3 2 1 2 6 7 6 7 8 8 12 16 15 11 15 24 22 12 9 10 12 21 21 14 12 11 10
14 18 7 0 11 13 9 9 6 12 17 20 34 36 27 28 21 8 16 22 15 10 8 6 4 5 11 11 18 49 63 33 1 -3 1 6 12 14 18 19 11 6 8 15 15 8 9 15 5 -0 14 22 17 4 -8 -0 14 11 9 12 10 7 5 3 3 6 10 8 7 10 7 5 10 15 13 13 23 23 11 7 7 4 13 19 13 11 10 7
13 18 11 1 9 11 2 6 14 18 25 34 44 36 20 23 24 17 20 18 11 11 7 3 4 3 7 14 14 28 56 58 24 -6 -10 -0 8 17 25 24 15 7 6 10 14 10 10 15 7 2 16 28 29 19 -1 -2 12 14 10 10 8 7 7 7 6 5 8 9 8 9 9 6 3 7 11 12 16 15 8 7 7 5 10 14 11 12 10 7
11 14 16 6 5 8 4 12 20 19 31 47 45 28 14 17 29 31 24 14 8 9 8 4 2 3 4 9 17 22 36 59 53 15 -9 -6 5 19 29 25 19 14 7 7 12 10 10 14 7 -0 10 17 16 13 3 -1 7 13 16 16 8 6 8 7 8 6 4 7 8 6 10 13 6 6 16 21 18 13 7 6 7 6 9 9 9 12 10 10
9 9 12 6 3 8 9 17 21 21 37 50 36 21 18 15 23 32 23 14 11 9 8 7 2 3 4 5 17 21 21 45 64 41 9 -3 1 15 26 25 22 21 15 7 8 12 12 12 10 3 4 8 9 8 4 1 2 4 14 22 15 10 9 7 8 10 6 5 8 8 12 15 10 13 23 21 10 7 9 9 7 4 7 10 10 13 13 13
10 11 10 5 6 9 9 16 23 24 36 45 31 21 18 15 22 26 16 11 11 9 9 8 3 4 6 7 15 18 14 30 57 59 33 8 0 8 19 24 23 26 25 8 1 13 14 9 12 7 -0 5 10 7 5 4 1 -4 0 15 22 17 8 4 4 7 9 8 5 8 14 11 3 6 17 15 7 6 8 7 3 0 7 14 13 13 15 15
12 15 8 2 7 10 9 18 24 25 35 39 27 18 17 25 34 27 13 8 6 7 7 5 5 9 8 9 14 16 13 19 42 64 55 23 -1 -4 12 26 24 29 35 14 -2 9 13 10 15 7 1 10 12 7 7 5 3 2 -4 5 25 23 5 3 7 5 9 12 5 7 16 9 -6 -4 8 10 8 9 7 3 1 -1 4 13 13 12 11 14
14 15 5 -0 7 9 9 20 23 24 39 39 21 12 14 23 28 18 10 11 7 8 9 4 5 9 7 9 12 13 16 17 30 58 68 40 -2 -18 5 24 21 32 43 21 1 6 9 13 18 7 3 11 9 7 11 5 1 6 -1 0 26 32 8 -1 7 8 8 13 9 9 21 17 -5 -11 1 2 -1 3 3 2 2 -3 -3 5 11 12 8 11
14 11 4 1 7 7 8 21 24 25 41 41 19 11 14 18 19 13 11 13 8 6 8 6 6 7 5 9 12 13 14 15 30 57 72 51 1 -28 -9 10 16 39 50 25 6 7 6 12 19 11 5 5 3 7 13 8 4 6 -3 -13 5 30 24 2 -3 5 8 13 16 12 16 24 9 -8 -7 -4 -3 -1 -3 -4 -1 -2 -1 4 11 14 9 9
12 7 5 3 6 7 7 18 25 27 39 38 19 11 13 13 16 17 14 13 10 8 8 7 7 7 8 11 13 14 10 10 28 55 68 57 17 -22 -21 -4 12 40 50 27 9 7 6 11 18 13 2 -2 0 4 9 11 12 10 5 -9 -16 9 34 17 -6 1 7 6 20 18 4 17 27 11 -1 -5 -6 -4 -7 -7 -3 -3 -1 1 6 16 15 8
11 7 7 6 6 7 6 14 25 29 36 35 17 8 10 10 12 18 19 17 14 12 11 9 8 10 11 10 10 12 10 9 24 43 56 60 35 -7 -21 -8 10 35 49 31 11 6 5 10 19 12 -6 -7 -1 0 7 19 20 11 11 8 -11 -10 26 32 1 -3 6 1 13 19 0 3 22 21 14 9 3 4 4 3 5 3 3 3 4 13 16 8
Height
5884 5883 5883 5882 5882 5881 5881 5880 5880 5880 5879 5878 5878 5877 5877 5877 5877 5876 5875 5876 5876 5876 5877 5877 5877 5876 5876 5876 5876 5876 5877 5876 5876 5876 5876 5876 5877 5877 5877 5877 5878 5879 5880 5881 5883 5884 5884 5886 5887 5888 5890 5892 5893 5894 5895 5896 5896 5897 5897 5898 5898 5897 5897 5896 5897 5898 5900 5901 5901 5901 5901 5902 5901 5901 5901 5900 5901 5904 5905 5906 5906 5907 5908 5908 5909 5909 5910 5910
5882 5881 5881 5880 5880 5879 5878 5878 5878 5877 5877 5876 5876 5876 5875 5875 5875 5874 5874 5873 5874 5875 5875 5875 5875 5875 5875 5874 5875 5875 5875 5875 5875 5875 5875 5875 5875 5874 5875 5876 5877 5878 5879 5880 5881 5882 5882 5884 5885 5887 5889 5890 5892 5893 5894 5895 5895 5896 5896 5897 5897 5897 5897 5896 5896 5897 5899 5901 5902 5902 5901 5901 5900 5901 5901 5901 5903 5905 5905 5906 5906 5907 5908 5908 5909 5909 5909 5910
5880 5879 5879 5878 5877 5877 5876 5876 5875 5875 5875 5874 5874 5873 5873 5873 5873 5872 5872 5871 5872 5873 5873 5873 5873 5874 5873 5873 5873 5873 5873 5873 5873 5874 5874 5873 5873 5873 5874 5875 5876 5877 5877 5878 5879 5879 5880 5881 5882 5884 5886 5888 5890 5892 5893 5894 5895 5895 5896 5897 5897 5897 5897 5896 5896 5896 5897 5899 5901 5901 5900 5900 5901 5901 5902 5903 5904 5905 5905 5906 5906 5907 5907 5908 5909 5909 5909 5910
5877 5876 5876 5875 5875 5874 5874 5873 5873 5873 5872 5872 5871 5871 5871 5871 5870 5870 5870 5870 5869 5870 5871 5871 5871 5871 5872 5872 5872 5871 5871 5871 5871 5873 5872 5871 5872 5871 5872 5873 5874 5874 5875 5876 5877 5877 5878 5879 5881 5882 5884 5886 5888 5890 5892 5893 5894 5894 5895 5896 5896 5896 5896 5896 5896 5895 5895 5897 5899 5900 5899 5901 5902 5902 5903 5904 5904 5905 5905 5905 5906 5907 5907 5908 5908 5909 5909 5910
5874 5873 5873 5872 5872 5871 5871 5870 5870 5870 5870 5869 5869 5868 5868 5868 5868 5868 5868 5868 5867 5868 5868 5869 5869 5869 5870 5870 5870 5870 5870 5869 5869 5871 5870 5869 5869 5870 5870 5871 5872 5872 5873 5874 5875 5876 5877 5879 5880 5881 5883 5885 5887 5889 5891 5892 5893 5894 5894 5895 5896 5896 5896 5896 5895 5895 5894 5895 5898 5900 5899 5901 5901 5902 5904 5904 5904 5905 5905 5905 5905 5906 5907 5907 5908 5908 5909 5910
5871 5870 5870 5869 5869 5868 5868 5867 5867 5867 5866 5866 5866 5865 5865 5865 5865 5865 5865 5865 5865 5865 5866 5867 5867 5867 5867 5868 5868 5868 5868 5866 5867 5869 5868 5867 5867 5869 5869 5869 5870 5871 5872 5873 5874 5875 5876 5878 5879 5881 5882 5884 5886 5888 5889 5891 5892 5893 5894 5894 5894 5895 5895 5895 5895 5895 5895 5895 5898 5900 5899 5901 5902 5902 5903 5903 5903 5904 5905 5905 5905 5905 5906 5907 5907 5908 5909 5910
5867 5866 5866 5865 5865 5865 5864 5864 5864 5863 5863 5863 5862 5862 5862 5862 5862 5862 5862 5862 5863 5863 5863 5864 5864 5865 5865 5865 5866 5866 5865 5865 5866 5866 5866 5866 5866 5867 5868 5867 5868 5869 5870 5871 5872 5873 5875 5876 5878 5880 5881 5882 5885 5886 5887 5889 5891 5891 5892 5893 5894 5894 5894 5895 5895 5895 5895 5895 5897 5899 5899 5900 5902 5902 5903 5903 5903 5904 5904 5904 5905 5905 5906 5907 5907 5907 5908 5909
5864 5863 5862 5862 5861 5861 5860 5860 5860 5859 5859 5859 5859 5859 5859 5859 5859 5859 5859 5859 5859 5860 5861 5861 5862 5862 5863 5863 5864 5863 5862 5864 5864 5862 5863 5864 5864 5865 5866 5866 5866 5867 5867 5868 5870 5871 5873 5875 5877 5878 5879 5881 5882 5883 5884 5887 5889 5890 5891 5892 5894 5894 5894 5894 5894 5894 5894 5895 5896 5897 5898 5899 5901 5901 5902 5902 5903 5903 5903 5904 5905 5905 5906 5907 5907 5907 5907 5908
5860 5859 5859 5858 5857 5857 5856 5856 5856 5855 5855 5855 5855 5855 5855 5855 5855 5856 5856 5856 5856 5856 5857 5858 5859 5860 5860 5861 5861 5860 5860 5862 5862 5860 5861 5863 5863 5863 5864 5864 5864 5865 5865 5866 5867 5869 5871 5873 5875 5876 5877 5878 5879 5880 5882 5885 5888 5890 5891 5891 5892 5892 5893 5894 5893 5893 5893 5894 5894 5895 5897 5899 5900 5900 5901 5902 5903 5902 5902 5903 5904 5904 5905 5906 5906 5906 5907 5907
5857 5856 5855 5854 5854 5853 5853 5852 5852 5851 5851 5851 5851 5851 5851 5851 5851 5851 5852 5853 5853 5853 5854 5855 5856 5857 5857 5858 5858 5856 5857 5860 5859 5859 5859 5860 5861 5861 5861 5862 5862 5863 5864 5864 5865 5868 5870 5871 5872 5873 5873 5874 5876 5877 5879 5883 5886 5886 5888 5889 5889 5890 5891 5892 5892 5892 5892 5893 5894 5894 5895 5897 5899 5899 5900 5902 5902 5902 5902 5902 5903 5904 5904 5904 5905 5906 5907 5907
5853 5852 5851 5850 5850 5849 5848 5848 5847 5847 5847 5847 5846 5847 5847 5847 5847 5847 5848 5849 5849 5849 5850 5851 5852 5854 5854 5856 5855 5852 5854 5857 5857 5857 5857 5857 5859 5859 5859 5860 5860 5860 5861 5862 5864 5865 5866 5867 5868 5869 5870 5872 5873 5874 5877 5881 5883 5883 5884 5885 5886 5887 5888 5890 5891 5891 5891 5892 5893 5893 5894 5896 5898 5898 5899 5900 5901 5901 5901 5901 5902 5902 5903 5904 5905 5906 5906 5907
5849 5848 5847 5846 5845 5845 5844 5843 5843 5842 5842 5842 5842 5842 5842 5842 5843 5843 5843 5844 5845 5845 5846 5847 5848 5850 5852 5853 5850 5848 5851 5854 5855 5855 5855 5855 5855 5857 5857 5857 5857 5858 5859 5860 5861 5862 5863 5864 5864 5866 5869 5870 5871 5872 5875 5879 5879 5880 5880 5882 5884 5884 5885 5887 5889 5889 5890 5891 5891 5892 5893 5895 5897 5897 5898 5899 5900 5901 5899 5899 5900 5902 5902 5903 5904 5905 5905 5906
5845 5844 5843 5842 5841 5841 5840 5839 5838 5838 5837 5837 5837 5837 5838 5838 5838 5838 5839 5839 5840 5841 5841 5842 5844 5846 5849 5849 5845 5844 5848 5851 5853 5854 5853 5851 5851 5853 5855 5854 5854 5855 5857 5857 5858 5859 5860 5860 5862 5865 5866 5867 5868 5870 5873 5875 5876 5876 5877 5879 5881 5882 5884 5885 5886 5888 5889 5890 5890 5890 5891 5894 5896 5896 5898 5898 5899 5900 5898 5898 5900 5901 5902 5902 5904 5905 5905 5905
5842 5840 5839 5839 5838 5836 5836 5835 5834 5834 5833 5832 5832 5832 5833 5833 5833 5833 5834 5834 5834 5836 5837 5838 5840 5841 5845 5846 5839 5840 5845 5848 5850 5850 5848 5847 5848 5850 5852 5852 5852 5852 5854 5854 5855 5856 5857 5858 5859 5861 5862 5864 5867 5867 5869 5870 5871 5873 5874 5875 5877 5879 5883 5884 5885 5886 5888 5889 5889 5889 5890 5891 5894 5896 5897 5897 5898 5898 5897 5897 5899 5900 5901 5901 5903 5904 5904 5905
5838 5837 5836 5835 5834 5833 5832 5831 5830 5830 5829 5828 5827 5827 5828 5828 5828 5828 5828 5829 5829 5830 5832 5833 5835 5836 5841 5841 5835 5836 5841 5844 5846 5844 5843 5844 5845 5848 5848 5849 5849 5850 5850 5851 5852 5853 5854 5854 5855 5857 5860 5862 5863 5864 5866 5866 5867 5869 5870 5872 5874 5876 5880 5882 5883 5884 5886 5888 5887 5888 5888 5889 5893 5895 5896 5896 5897 5897 5897 5897 5898 5899 5900 5901 5902 5903 5903 5904
5834 5832 5831 5830 5829 5828 5827 5827 5826 5825 5824 5824 5823 5822 5823 5823 5823 5824 5824 5824 5823 5825 5827 5828 5829 5831 5835 5835 5832 5833 5835 5837 5840 5839 5841 5842 5842 5844 5845 5845 5847 5847 5848 5848 5849 5850 5850 5851 5853 5855 5857 5858 5859 5862 5864 5864 5865 5867 5868 5870 5873 5874 5877 5879 5881 5882 5884 5885 5886 5887 5887 5887 5891 5893 5895 5896 5896 5895 5896 5897 5898 5899 5900 5901 5901 5902 5903 5903
5829 5828 5826 5825 5824 5823 5822 5821 5821 5820 5820 5819 5818 5818 5818 5818 5819 5819 5819 5819 5818 5819 5821 5822 5823 5825 5828 5830 5828 5829 5830 5831 5834 5837 5839 5839 5838 5839 5841 5843 5844 5844 5844 5844 5846 5847 5847 5849 5851 5852 5853 5855 5857 5859 5860 5861 5864 5865 5867 5870 5871 5873 5875 5877 5878 5880 5881 5882 5884 5886 5885 5886 5888 5891 5893 5894 5894 5894 5895 5896 5897 5898 5899 5900 5900 5901 5901 5902
5825 5823 5822 5820 5819 5818 5816 5815 5816 5815 5814 5813 5813 5813 5812 5813 5813 5815 5815 5814 5814 5814 5815 5815 5816 5819 5822 5823 5823 5824 5825 5825 5828 5833 5835 5836 5835 5835 5837 5839 5839 5840 5840 5841 5843 5844 5845 5847 5847 5848 5850 5852 5855 5856 5858 5861 5864 5865 5866 5869 5870 5872 5874 5875 5877 5878 5879 5881 5883 5884 5884 5884 5885 5888 5891 5892 5893 5894 5895 5895 5896 5897 5898 5899 5900 5900 5901 5901
5821 5819 5818 5815 5813 5813 5811 5810 5810 5810 5809 5807 5807 5806 5807 5808 5808 5810 5810 5809 5808 5808 5808 5809 5810 5814 5817 5818 5818 5817 5819 5820 5822 5827 5830 5832 5832 5832 5833 5834 5834 5835 5836 5838 5841 5842 5842 5843 5843 5845 5849 5852 5854 5855 5858 5861 5862 5863 5865 5866 5868 5870 5872 5874 5875 5876 5878 5879 5880 5882 5884 5882 5882 5886 5889 5891 5892 5893 5894 5894 5895 5895 5897 5898 5899 5900 5900 5900
5816 5814 5813 5810 5808 5807 5805 5804 5803 5803 5803 5801 5800 5800 5800 5801 5802 5804 5805 5805 5802 5800 5802 5803 5804 5809 5812 5813 5811 5810 5814 5815 5817 5821 5824 5825 5826 5827 5828 5829 5830 5831 5833 5837 5839 5839 5839 5837 5840 5846 5850 5851 5852 5853 5856 5858 5859 5860 5862 5864 5866 5867 5870 5872 5874 5875 5875 5876 5878 5881 5882 5881 5880 5883 5887 5890 5891 5892 5893 5894 5894 5895 5896 5897 5898 5900 5900 5900
5810 5808 5807 5804 5801 5800 5799 5797 5796 5796 5796 5794 5793 5793 5793 5794 5796 5797 5800 5801 5794 5792 5797 5797 5797 5801 5805 5807 5804 5804 5808 5810 5812 5814 5817 5819 5820 5820 5823 5825 5826 5827 5831 5834 5834 5833 5832 5833 5841 5847 5848 5847 5848 5849 5851 5853 5855 5857 5859 5861 5863 5865 5868 5869 5871 5874 5875 5875 5878 5879 5880 5879 5878 5880 5884 5888 5890 5892 5893 5894 5893 5894 5895 5896 5897 5899 5899 5900
5804 5801 5800 5797 5793 5792 5792 5789 5788 5788 5786 5786 5785 5785 5786 5786 5789 5789 5793 5796 5788 5784 5788 5789 5790 5794 5798 5802 5798 5797 5802 5805 5807 5808 5810 5813 5813 5815 5818 5820 5823 5826 5829 5828 5826 5826 5826 5835 5844 5844 5843 5843 5844 5845 5847 5850 5852 5853 5855 5858 5860 5863 5866 5865 5866 5871 5873 5874 5876 5877 5879 5878 5877 5878 5881 5885 5889 5890 5891 5892 5892 5893 5894 5895 5896 5897 5898 5899
5797 5794 5793 5790 5786 5784 5784 5780 5779 5779 5777 5777 5776 5776 5777 5777 5780 5781 5784 5788 5782 5777 5781 5781 5783 5788 5791 5794 5791 5791 5797 5800 5802 5802 5803 5806 5808 5811 5812 5814 5818 5822 5823 5821 5822 5822 5827 5838 5842 5838 5838 5839 5841 5842 5844 5846 5847 5849 5851 5854 5859 5862 5864 5864 5864 5867 5869 5872 5875 5877 5878 5877 5876 5876 5879 5883 5887 5888 5889 5890 5891 5892 5893 5895 5895 5896 5897 5898
5789 5786 5784 5783 5779 5776 5775 5772 5770 5770 5768 5768 5766 5766 5767 5767 5770 5772 5775 5777 5771 5771 5776 5775 5777 5780 5782 5784 5786 5788 5791 5793 5796 5797 5797 5800 5803 5805 5806 5809 5812 5816 5818 5818 5819 5821 5827 5836 5835 5831 5834 5836 5837 5838 5839 5841 5843 5846 5848 5851 5857 5862 5863 5864 5864 5865 5867 5869 5872 5874 5876 5875 5873 5873 5876 5880 5884 5886 5887 5888 5889 5891 5892 5893 5894 5894 5895 5897
5782 5779 5776 5775 5772 5768 5767 5765 5762 5761 5760 5759 5757 5757 5757 5757 5759 5761 5766 5766 5760 5764 5769 5768 5770 5772 5774 5777 5779 5782 5785 5788 5791 5791 5792 5794 5796 5798 5800 5802 5805 5808 5812 5813 5814 5817 5824 5829 5828 5826 5829 5831 5832 5834 5836 5839 5841 5843 5845 5850 5856 5860 5862 5862 5862 5862 5864 5865 5868 5870 5871 5871 5871 5872 5874 5877 5879 5881 5884 5886 5888 5890 5891 5892 5893 5894 5894 5895
5774 5772 5768 5767 5766 5762 5760 5758 5755 5754 5753 5751 5750 5749 5749 5749 5749 5751 5756 5754 5751 5756 5759 5759 5763 5765 5767 5769 5770 5775 5780 5782 5783 5783 5786 5788 5789 5791 5793 5795 5798 5802 5806 5808 5809 5812 5819 5823 5821 5821 5824 5827 5829 5831 5833 5836 5838 5841 5845 5850 5854 5856 5859 5859 5859 5859 5860 5862 5864 5866 5867 5870 5871 5870 5872 5874 5874 5876 5879 5883 5886 5888 5889 5891 5893 5894 5893 5894
5767 5765 5762 5760 5759 5757 5754 5752 5750 5748 5748 5746 5744 5743 5742 5742 5742 5742 5746 5745 5743 5748 5749 5750 5755 5757 5758 5758 5762 5767 5768 5771 5773 5775 5779 5782 5782 5784 5786 5789 5792 5795 5798 5800 5800 5806 5814 5817 5816 5817 5820 5823 5825 5828 5832 5833 5835 5840 5845 5848 5849 5852 5855 5857 5857 5856 5857 5859 5861 5863 5866 5869 5868 5869 5871 5871 5871 5872 5875 5880 5885 5886 5887 5890 5892 5893 5893 5893
5761 5759 5756 5753 5752 5751 5750 5748 5746 5744 5743 5741 5740 5739 5738 5737 5737 5736 5738 5736 5735 5740 5742 5742 5744 5747 5747 5747 5750 5753 5754 5759 5762 5763 5768 5771 5774 5778 5781 5783 5785 5788 5791 5792 5796 5805 5812 5812 5812 5815 5816 5819 5823 5828 5831 5831 5833 5839 5842 5843 5845 5848 5851 5855 5855 5854 5856 5856 5855 5858 5863 5865 5865 5867 5871 5870 5868 5869 5872 5878 5882 5884 5886 5888 5890 5891 5891 5891
5756 5754 5752 5749 5746 5745 5744 5743 5742 5740 5738 5737 5736 5735 5734 5734 5732 5731 5731 5729 5729 5732 5733 5733 5733 5735 5737 5736 5738 5742 5747 5751 5749 5749 5754 5758 5764 5769 5773 5777 5779 5781 5784 5787 5793 5800 5805 5807 5808 5809 5811 5816 5821 5825 5826 5826 5830 5836 5838 5838 5842 5844 5847 5851 5852 5853 5854 5851 5849 5853 5857 5860 5861 5864 5867 5867 5866 5868 5871 5876 5880 5882 5884 5885 5888 5889 5889 5889
5752 5749 5748 5745 5742 5740 5738 5737 5737 5735 5734 5733 5732 5731 5730 5729 5728 5727 5726 5724 5723 5724 5723 5722 5722 5725 5726 5726 5731 5737 5741 5741 5739 5742 5747 5749 5755 5760 5766 5770 5771 5774 5779 5782 5786 5791 5797 5800 5800 5802 5807 5812 5816 5819 5821 5822 5827 5831 5832 5834 5837 5839 5843 5845 5847 5851 5849 5844 5846 5850 5853 5856 5857 5859 5862 5863 5865 5868 5871 5874 5877 5879 5881 5882 5885 5886 5886 5886
5749 5746 5744 5741 5739 5737 5734 5731 5730 5730 5728 5727 5727 5725 5724 5723 5722 5722 5720 5719 5718 5717 5717 5715 5714 5716 5716 5718 5726 5730 5728 5729 5730 5735 5739 5742 5746 5751 5756 5760 5762 5766 5769 5772 5777 5782 5787 5790 5792 5797 5802 5806 5809 5812 5816 5818 5821 5825 5826 5829 5831 5834 5837 5839 5841 5844 5840 5838 5845 5849 5850 5851 5851 5854 5858 5861 5864 5867 5868 5871 5874 5876 5877 5879 5882 5884 5884 5884
5746 5742 5740 5738 5735 5732 5730 5728 5726 5724 5723 5721 5721 5720 5718 5717 5717 5717 5715 5714 5713 5711 5711 5709 5708 5708 5706 5710 5717 5716 5714 5718 5721 5725 5732 5735 5737 5742 5747 5752 5756 5758 5760 5766 5770 5772 5777 5784 5788 5792 5796 5800 5803 5807 5810 5811 5814 5818 5820 5822 5824 5828 5830 5831 5833 5834 5831 5835 5844 5848 5849 5847 5846 5851 5856 5859 5862 5864 5865 5868 5870 5872 5874 5876 5878 5880 5882 5882
5742 5739 5736 5734 5731 5728 5726 5723 5721 5719 5717 5716 5714 5713 5713 5711 5711 5711 5710 5709 5708 5706 5705 5704 5702 5700 5698 5702 5705 5704 5707 5711 5713 5718 5724 5725 5728 5735 5741 5746 5751 5753 5757 5763 5764 5765 5773 5779 5782 5786 5791 5794 5797 5800 5803 5805 5808 5812 5814 5816 5818 5821 5823 5824 5827 5828 5828 5835 5843 5847 5846 5843 5843 5849 5854 5856 5860 5862 5863 5864 5866 5868 5870 5872 5875 5877 5879 5880
5738 5735 5732 5729 5726 5723 5721 5719 5717 5714 5712 5710 5708 5707 5706 5704 5704 5704 5703 5702 5702 5700 5699 5698 5696 5694 5693 5694 5694 5697 5702 5704 5706 5711 5714 5715 5720 5726 5730 5735 5744 5750 5752 5754 5755 5759 5765 5770 5776 5782 5785 5788 5790 5794 5799 5803 5805 5809 5813 5815 5817 5819 5821 5823 5826 5827 5829 5836 5843 5844 5840 5837 5840 5847 5853 5856 5858 5859 5861 5861 5862 5865 5868 5870 5872 5874 5877 5878
5734 5731 5728 5724 5720 5718 5716 5713 5710 5708 5706 5704 5702 5700 5699 5698 5697 5697 5696 5696 5695 5694 5693 5691 5690 5689 5688 5688 5687 5690 5694 5696 5699 5704 5705 5708 5712 5716 5720 5725 5729 5732 5733 5736 5743 5750 5754 5763 5774 5777 5778 5783 5787 5792 5797 5800 5802 5807 5811 5813 5814 5818 5822 5825 5827 5829 5831 5835 5839 5839 5834 5834 5840 5845 5850 5854 5856 5857 5859 5859 5860 5862 5865 5868 5870 5872 5875 5877
5729 5726 5723 5720 5716 5712 5710 5707 5704 5702 5699 5698 5696 5694 5693 5692 5691 5690 5689 5689 5688 5688 5687 5686 5685 5683 5681 5682 5682 5683 5686 5688 5692 5696 5698 5700 5703 5706 5711 5714 5713 5713 5717 5727 5737 5742 5745 5755 5765 5768 5772 5779 5785 5789 5793 5795 5799 5803 5806 5808 5812 5817 5820 5823 5826 5829 5831 5832 5833 5835 5832 5833 5839 5842 5845 5850 5852 5854 5856 5857 5858 5860 5863 5866 5868 5871 5874 5876
5724 5721 5718 5714 5711 5707 5704 5702 5699 5696 5694 5692 5690 5688 5687 5686 5685 5684 5682 5681 5681 5681 5680 5679 5679 5676 5675 5676 5675 5676 5680 5682 5685 5688 5689 5692 5695 5698 5701 5703 5703 5705 5714 5725 5733 5736 5739 5748 5756 5761 5767 5775 5781 5786 5788 5791 5795 5799 5802 5806 5811 5815 5816 5819 5822 5824 5825 5825 5828 5831 5831 5832 5836 5839 5842 5846 5848 5851 5853 5854 5855 5857 5859 5862 5866 5869 5872 5874
5718 5715 5712 5709 5706 5703 5699 5697 5694 5692 5689 5687 5684 5682 5680 5679 5679 5678 5676 5675 5675 5674 5673 5672 5672 5670 5669 5667 5666 5669 5674 5677 5679 5680 5682 5684 5686 5690 5694 5695 5696 5699 5708 5717 5723 5726 5733 5742 5749 5756 5763 5771 5776 5779 5781 5785 5790 5795 5800 5804 5807 5809 5810 5813 5815 5817 5818 5820 5823 5827 5829 5831 5832 5835 5840 5843 5844 5847 5850 5850 5851 5853 5855 5858 5862 5866 5869 5871
5712 5708 5706 5704 5702 5698 5695 5692 5690 5687 5685 5682 5679 5676 5674 5673 5672 5671 5669 5668 5667 5668 5667 5666 5665 5664 5663 5659 5658 5662 5668 5671 5673 5674 5675 5677 5679 5682 5687 5690 5692 5696 5704 5711 5715 5721 5727 5734 5742 5751 5758 5763 5767 5770 5773 5778 5785 5790 5794 5797 5801 5804 5806 5809 5811 5813 5815 5817 5821 5824 5825 5827 5830 5834 5838 5840 5842 5845 5847 5847 5847 5849 5852 5855 5859 5863 5866 5868
5708 5704 5701 5699 5697 5694 5691 5687 5684 5682 5679 5676 5673 5670 5668 5665 5664 5663 5662 5661 5660 5660 5661 5660 5659 5658 5657 5654 5653 5655 5659 5663 5665 5665 5667 5671 5674 5677 5680 5683 5687 5693 5700 5703 5709 5717 5722 5726 5736 5746 5750 5752 5756 5762 5769 5776 5780 5782 5784 5788 5793 5796 5800 5806 5808 5810 5812 5814 5817 5820 5821 5824 5830 5834 5835 5837 5839 5841 5843 5844 5845 5846 5849 5852 5856 5861 5864 5865
5704 5700 5697 5696 5693 5690 5686 5682 5678 5676 5673 5669 5666 5663 5660 5658 5656 5655 5654 5655 5654 5654 5655 5654 5653 5652 5651 5649 5647 5647 5649 5652 5654 5657 5663 5667 5669 5671 5674 5677 5681 5688 5695 5699 5704 5711 5714 5719 5731 5740 5741 5744 5751 5760 5770 5776 5778 5780 5781 5784 5789 5792 5796 5799 5801 5804 5808 5810 5814 5817 5819 5823 5828 5831 5832 5834 5836 5837 5839 5841 5842 5844 5847 5849 5854 5859 5861 5863
5701 5696 5693 5692 5689 5685 5682 5677 5673 5669 5665 5661 5658 5654 5651 5650 5648 5646 5647 5649 5648 5648 5649 5648 5647 5646 5645 5643 5643 5641 5641 5643 5646 5652 5658 5660 5662 5664 5667 5670 5676 5682 5689 5694 5698 5703 5707 5715 5725 5733 5736 5742 5750 5757 5766 5773 5777 5779 5781 5785 5788 5790 5793 5795 5797 5802 5806 5808 5813 5816 5817 5822 5825 5827 5829 5831 5833 5834 5836 5838 5840 5842 5844 5848 5852 5856 5858 5860
5698 5693 5688 5686 5684 5680 5678 5674 5669 5663 5656 5652 5649 5645 5643 5643 5641 5639 5641 5643 5643 5643 5643 5643 5642 5642 5640 5638 5638 5636 5634 5636 5641 5646 5650 5653 5656 5659 5662 5666 5671 5676 5681 5687 5692 5697 5704 5712 5721 5729 5735 5742 5750 5753 5756 5764 5772 5775 5777 5781 5784 5787 5791 5795 5799 5803 5806 5807 5811 5813 5814 5819 5822 5823 5826 5829 5830 5832 5833 5835 5837 5839 5842 5846 5850 5852 5855 5857
5696 5692 5686 5682 5679 5676 5673 5670 5665 5658 5651 5645 5641 5638 5637 5637 5636 5635 5637 5638 5638 5638 5639 5638 5637 5637 5636 5634 5633 5632 5630 5631 5635 5639 5642 5646 5650 5654 5658 5662 5666 5671 5675 5680 5686 5692 5699 5706 5714 5724 5731 5738 5745 5748 5750 5755 5762 5768 5772 5776 5780 5784 5789 5793 5797 5800 5802 5804 5808 5810 5811 5817 5820 5821 5823 5826 5827 5829 5830 5832 5834 5836 5840 5844 5847 5850 5852 5855
5693 5690 5685 5678 5675 5672 5668 5663 5658 5653 5646 5640 5636 5634 5634 5634 5633 5632 5633 5633 5633 5634 5634 5633 5633 5633 5632 5630 5629 5628 5626 5625 5627 5631 5635 5639 5644 5650 5655 5658 5662 5666 5669 5674 5680 5685 5692 5700 5709 5718 5725 5731 5737 5742 5746 5750 5755 5762 5768 5772 5776 5780 5783 5788 5792 5794 5796 5800 5804 5806 5809 5815 5818 5818 5821 5824 5825 5827 5829 5830 5832 5835 5838 5842 5845 5848 5850 5853
5689 5687 5683 5676 5670 5665 5661 5656 5651 5645 5640 5635 5632 5631 5631 5631 5630 5629 5629 5629 5629 5630 5630 5630 5629 5629 5628 5627 5625 5624 5622 5619 5620 5624 5628 5634 5640 5646 5650 5654 5658 5661 5664 5670 5675 5681 5688 5696 5703 5711 5719 5725 5731 5737 5741 5745 5748 5755 5761 5767 5772 5776 5779 5784 5787 5789 5794 5798 5801 5803 5808 5814 5815 5816 5820 5822 5823 5825 5827 5829 5831 5833 5836 5839 5843 5845 5848 5851
5685 5682 5679 5674 5668 5662 5656 5651 5645 5638 5633 5630 5629 5628 5627 5627 5626 5625 5625 5626 5626 5626 5627 5627 5626 5625 5624 5623 5621 5620 5618 5616 5616 5618 5621 5628 5635 5640 5645 5650 5654 5657 5660 5666 5671 5677 5685 5691 5696 5704 5713 5720 5728 5734 5737 5740 5744 5749 5755 5762 5768 5772 5777 5780 5783 5787 5792 5796 5798 5803 5808 5811 5812 5814 5818 5820 5822 5824 5825 5827 5830 5832 5834 5837 5841 5844 5846 5849
5682 5678 5674 5669 5666 5661 5654 5648 5642 5634 5629 5627 5626 5625 5624 5623 5622 5622 5622 5623 5623 5623 5624 5624 5623 5622 5620 5619 5617 5616 5614 5612 5613 5613 5616 5622 5630 5636 5641 5646 5649 5653 5657 5662 5668 5674 5680 5684 5691 5702 5711 5719 5726 5731 5734 5738 5743 5745 5748 5756 5763 5769 5773 5776 5780 5785 5790 5793 5797 5802 5806 5808 5810 5813 5816 5818 5820 5822 5824 5826 5829 5831 5834 5836 5839 5842 5844 5846
5679 5675 5670 5665 5660 5656 5651 5645 5639 5633 5628 5625 5623 5622 5621 5621 5620 5620 5620 5621 5621 5621 5621 5621 5620 5619 5617 5615 5614 5612 5610 5609 5609 5610 5611 5618 5626 5631 5636 5641 5645 5649 5653 5659 5665 5670 5675 5681 5689 5700 5710 5718 5724 5727 5730 5734 5739 5743 5747 5754 5761 5766 5771 5775 5779 5784 5787 5791 5796 5800 5803 5807 5809 5811 5813 5815 5817 5819 5821 5824 5827 5830 5833 5835 5837 5840 5842 5845
5676 5672 5668 5663 5657 5653 5648 5642 5637 5631 5627 5624 5621 5620 5619 5618 5618 5618 5618 5618 5618 5618 5618 5618 5618 5616 5614 5613 5611 5609 5607 5606 5606 5607 5609 5614 5621 5627 5631 5635 5640 5644 5650 5656 5662 5667 5672 5678 5688 5699 5708 5715 5719 5722 5726 5730 5735 5741 5748 5754 5761 5766 5769 5774 5778 5782 5786 5790 5794 5797 5800 5804 5806 5808 5810 5811 5813 5816 5818 5820 5823 5827 5830 5833 5836 5838 5840 5843
5673 5669 5665 5660 5656 5651 5645 5640 5635 5630 5625 5622 5620 5618 5617 5616 5616 5616 5616 5615 5615 5616 5615 5615 5615 5614 5612 5610 5609 5607 5605 5604 5603 5604 5606 5610 5615 5621 5626 5630 5635 5639 5645 5652 5659 5665 5670 5677 5687 5697 5704 5709 5715 5720 5724 5729 5734 5740 5746 5752 5759 5764 5767 5772 5777 5781 5784 5788 5791 5795 5797 5800 5802 5805 5806 5807 5809 5813 5816 5819 5821 5824 5828 5831 5834 5836 5839 5842
5670 5666 5663 5658 5654 5649 5643 5638 5633 5628 5624 5621 5619 5617 5616 5615 5614 5614 5614 5613 5613 5612 5612 5612 5611 5611 5610 5608 5607 5605 5603 5602 5601 5600 5602 5605 5609 5615 5621 5625 5631 5636 5641 5649 5656 5663 5669 5676 5684 5694 5700 5705 5711 5716 5720 5726 5731 5736 5741 5745 5751 5757 5763 5769 5773 5775 5779 5784 5789 5792 5795 5798 5800 5801 5802 5803 5806 5810 5814 5817 5819 5822 5825 5829 5832 5834 5837 5840